TIANWANG 1A (TW-1A)
1 40928U 15051D   19244.57366049  .00002356  00000-0  58846-4 0  9996
2 40928  97.1411 274.2161 0011886 153.1686 359.1283 15.41082973220707
LAPAN A2
1 40931U 15052B   19242.36317133  .00000635  00000-0 -55967-6 0  9998
2 40931   5.9987 258.3974 0012410 101.0379 259.1372 14.76612221212022
LQSAT
1 40958U 15057A   19244.41816903  .00000010  00000-0  92387-5 0  9991
2 40958  97.8933 311.5751 0018215   6.2229 353.9202 14.73087060209807
CHUBUSAT 2
1 41338U 16012B   19244.54633099  .00000312  00000-0  17583-4 0  9992
2 41338  31.0040  29.0525 0013581 124.8351 235.3563 15.00171552194169
CHUBUSAT 3
1 41339U 16012C   19244.44056429  .00000229  00000-0  11043-4 0  9990
2 41339  31.0114  27.7207 0013302 131.0156 229.1634 15.00345034194144
OUFTI-1
1 41458U 16025C   19243.81159844  .00002290  00000-0  11867-3 0  9994
2 41458  98.1009 334.4254 0167445 107.7855 254.1720 15.05961021183728
E-STAR-2
1 41459U 16025D   19244.31105398  .00001405  00000-0  74906-4 0  9997
2 41459  98.1033 334.5729 0169051 107.6887 254.2880 15.05596447183772
AAUSAT 4
1 41460U 16025E   19244.32546803  .00002598  00000-0  13224-3 0  9999
2 41460  98.0968 336.0155 0158195  99.5167 262.3962 15.07536928183914
NUSAT 1
1 41557U 16033B   19244.53879685  .00001352  00000-0  53154-4 0  9999
2 41557  97.4168 331.6045 0014758  39.3211 320.9097 15.27334013181510
BEESAT 4
1 41619U 16040W   19243.81507880 +.00001328 +00000-0 +58909-4 0  9997
2 41619 097.3616 304.6387 0012866 119.2151 241.0375 15.23252227165149
PRATHAM
1 41783U 16059A   19243.73799278 +.00000063 +00000-0 +21336-4 0  9993
2 41783 098.0612 301.6607 0034342 149.3181 211.0039 14.63006233156373
ALSAT 1N
1 41789U 16059G   19244.41515971  .00000014  00000-0  11638-4 0  9991
2 41789  98.0641 304.4797 0029353 136.4836 223.8689 14.64257548156585
NAYIF 1
1 42017U 17008BX  19244.33944771  .00001463  00000-0  60320-4 0  9997
2 42017  97.3978 310.6482 0004503 264.5211  95.5514 15.25666603141304
MAX VALIER SAT
1 42778U 17036P   19244.27813842  .00000916  00000-0  42958-4 0  9998
2 42778  97.3482 300.2788 0011299 329.5647  30.4932 15.22104715121585
